sat.trackr.live / text

‹ back to catalog

TYVAK-0130

NORAD 48606 · 2021-041BF

PAYLOAD ACTIVE UNKNOWN

§ Identity

Operator
Country
US
Launch date
2021-05-15
Launch site
AFETR
Launch vehicle
Mass (kg)
RCS (m²)

External: N2YO · Heavens-Above · Gunter

§ Orbital elements

Epoch: 2026-05-25T03:26:28.643712Z

Period
94.29 min
Inclination
52.9939°
Eccentricity
0.0011555
Mean motion
15.27190944 rev/d
Perigee alt
476.3 km
Apogee alt
492.1 km
Semi-major
6,862.4 km
B*
2.0651e-4
RAAN
133.0748°
Arg perigee
94.4679°
Mean anomaly
265.7639°
Rev number
27,686

§ Raw data

TYVAK-01301 48606U 21041BF  26145.14338708  .00005238  00000+0  20651-3 0  99982 48606  52.9939 133.0748 0011555  94.4679 265.7639 15.27190944276864

JSON: /api/v1/satellites/48606 · /tle

For live sub-satellite position, see the globe view (requires WebGL).

§ Visibility from observer

Set your observer location to see the next 7 days of passes ≥ 10°. The values pass through the URL so the page stays shareable.

No JS? Fill the form by hand. The geolocation button needs JavaScript.

§ Radio — SatNOGS DB

ModeDescriptionDownlinkUplink
FSK Downlink 400.781 MHz
FM Possible Downlink 400.765 MHz
BPSK S-band telemetry 2.202 GHz

3 transmitters · refreshed weekly from db.satnogs.org